World > North America > United States > Pennsylvania

Hourly Elwyn, PA Regional Weather

Feedback E-mail the Weather

Quick WX

Elwyn, PA Weather Maps

°F °C°F °C
Elwyn Weather Map
UTC Time: 7/2/2022, 11:06
Your Time:

Elwyn, PA Regional Weather

Expires:202207021200;;546759
ASUS41 KCTP 021103
RWRCTP

REGIONAL WEATHER ROUNDUP
NATIONAL WEATHER SERVICE STATE COLLEGE PA
700 AM EDT SAT JUL 02 2022

Note: "fair" indicates few or no clouds below 12,000 feet with no 
significant weather and/or obstructions to visibility.

* = STATION THAT DOES NOT REPORT PRECIPITATION /E.G. RAIN...SNOW...ETC/
    THUNDER OR FOG.


PAZ038>040-043-044-047-048-054-055-060>062-067>071-021200-
EASTERN PENNSYLVANIA
  
CITY           SKY/WX    TMP DP  RH WIND       PRES   REMARKS
TOWANDA        SUNNY     66  66 100 CALM      29.98R                  
SCRANTON       LGT RAIN  69  67  93 SW3       29.97R FOG              
MOUNT POCONO   PTSUNNY   64  64 100 W7        30.00R                  
HAZLETON       CLOUDY    68  63  83 CALM      30.02R                  
LEHIGHTON      PTSUNNY   70  68  94 CALM      29.97R FOG              
ALLENTOWN      CLOUDY    75  70  84 W5        29.94R                  
QN CITY/ALNTWN FAIR      75  72  88 CALM      29.95R                  
QUAKERTOWN*    SUNNY     73  73 100 CALM      29.95R                  
PERKASIE*      CLOUDY    73  73 100 SW3       29.95R                  
DOYLESTOWN     CLOUDY    76  71  85 SW3       29.94R                  
READING        PTSUNNY   76  72  87 NW3       29.94R                  
LANCASTER      CLOUDY    75  70  84 NW5       29.94R                  
COATESVILLE    CLOUDY    73  73 100 VRB5      29.97R                  
WEST CHESTER   CLOUDY    75  70  83 W3        29.96R                  
POTTSTOWN      CLOUDY    75  71  87 SW5       29.96R                  
BLUE BELL      CLOUDY    76  72  87 SW7       29.94S                  
NORTH PHILA    CLOUDY    79  72  79 SW6       29.94R                  
PHILADELPHIA   CLOUDY    79  72  79 SW9       29.94R                  
$$
  

SKY/WX - Weather  TMP - Temperature  DP - Dew Point  RH - Humidity
WIND - Wind Direction/Speed PRES - Barometric Pressure VSB - Visibility
WCI - Wind Chill Index E13G22 Wind - East Wind 13 mph/Gusts of 22 mph

Trending Headlines

Elwyn Radar Loop



Elwyn Quick Facts


National Two Day Weather Forecast


E-mail the Elwyn Weather Forecast

Voice your opinion or tell us about page issues...